Regional Weather Roundup
Issued by NWS

Home | Current Version | Previous Version | Text Only | Print | Product List | Glossary On
Versions: 1 2 3 4 5 6 7 8 9 10 11 12 13 14 15 16 17 18 19 20 21 22 23 24 25 26 27 28 29 30 31 32 33 34 35 36 37 38 39 40 41 42 43 44 45 46 47 48 49 50
000
ASUS43 KMKX 190410
RWRWI

WISCONSIN REGIONAL WEATHER ROUNDUP
NATIONAL WEATHER SERVICE MILWAUKEE/SULLIVAN WI
1000 PM CST SUN FEB 18 2018

NOTE: "FAIR" INDICATES FEW OR NO CLOUDS BELOW 12,000 FEET WITH NO
SIGNIFICANT WEATHER AND/OR OBSTRUCTIONS TO VISIBILITY.

WIZ001-002-006>008-014>016-023>028-190500-
NORTHWEST WISCONSIN

CITY           SKY/WX    TMP DP  RH WIND       PRES   REMARKS
SUPERIOR ARPT  CLOUDY    23  20  88 NE13G18   29.84R WCI  11
ASHLAND        LGT SNOW  24  23  96 N13       29.82R FOG     WCI  12
HAYWARD        CLOUDY    27  22  81 N12       29.74R WCI  17
SIREN          CLOUDY    25  21  84 NE14      29.74F WCI  13
CUMBERLAND     MOCLDY    32  27  80 N5        29.70S WCI  27
RICE LAKE      FAIR      35  27  73 E5        29.71F WCI  30
CHETEK         CLOUDY    34  27  75 SE5       29.71F WCI  30
LADYSMITH      CLOUDY    35  25  66 SE5       29.74S WCI  31
EAU CLAIRE     CLOUDY    36  27  69 N5        29.71S WCI  32
MENOMONIE      CLOUDY    38  28  67 SE5       29.71S WCI  35
NEW RICHMOND   FAIR      32  27  81 SE5       29.71R WCI  27
OSCEOLA        FAIR      31  26  80 N12       29.74R WCI  22
$$

WIZ003>005-009-010-017-018-190500-
NORTH CENTRAL WISCONSIN

CITY           SKY/WX    TMP DP  RH WIND       PRES   REMARKS
MANITOWISH WTR CLOUDY    32  23  71 S3        29.73R
ARBOR VITAE    CLOUDY    34  26  71 S10       29.74R WCI  26
WOODRUFF       CLOUDY    34  26  71 S10       29.74R WCI  26
RHINELANDER    CLOUDY    33  24  69 S12       29.76R WCI  24
EAGLE RIVER    CLOUDY    32  22  65 SW6       29.75R WCI  26
LAND O LAKES   CLOUDY    33  23  66 S7        29.76S WCI  26
PHILLIPS       CLOUDY    33  24  70 S8        29.73R WCI  26
TOMAHAWK       CLOUDY    32  24  72 S3        29.76R
MEDFORD        CLOUDY    33  26  77 S15       29.74R WCI  23
MERRILL        CLOUDY    32  25  73 S6        29.78R WCI  27
$$

WIZ029-030-035-036-043>047-190500-
CENTRAL WISCONSIN

CITY           SKY/WX    TMP DP  RH WIND       PRES   REMARKS
WAUSAU         CLOUDY    30  23  75 S7        29.76F WCI  23
MOSINEE        MOCLDY    30  25  80 SE8       29.79S WCI  23
MARSHFIELD     MOCLDY    29  23  78 S9        29.75S WCI  20
STEVENS POINT  FAIR      29  25  83 SE6       29.80F WCI  23
WAUPACA        CLOUDY    37  29  73 S7        29.83F WCI  31
WAUTOMA        CLOUDY    34  28  79 SE5       29.83F WCI  30
WISC RAPIDS    FAIR      33  25  72 S7        29.79F WCI  27
CAMP DOUGLAS   FAIR      37  29  75 S14       29.76F WCI  28
$$

WIZ011>013-019>022-031-037>040-048>050-190500-
NORTHEAST WISCONSIN

CITY           SKY/WX    TMP DP  RH WIND       PRES   REMARKS
ANTIGO         CLOUDY    30  24  79 S10       29.79S WCI  21
SHAWANO        CLOUDY    35  26  70 CALM      29.84S
OCONTO         CLOUDY    33  26  76 S3        29.86F
STURGEON BAY   CLOUDY    35  29  78 S14G21    29.88S WCI  26
GREEN BAY      CLOUDY    35  26  69 S10       29.86F WCI  27
MANITOWOC      CLOUDY    35  30  82 S17G23    29.89F WCI  25
APPLETON       CLOUDY    30  23  74 S7        29.83F WCI  23
CLINTONVILLE   CLOUDY    36  26  69 S8        29.83F WCI  29
OSHKOSH        CLOUDY    33  27  78 S9        29.85F WCI  25
$$

WIZ032>034-041-042-053>061-190500-
SOUTHWEST WISCONSIN

CITY           SKY/WX    TMP DP  RH WIND       PRES   REMARKS
LA CROSSE      MOCLDY    37  30  75 S13       29.74F WCI  29
SPARTA         FAIR      36  30  77 S5        29.77S WCI  32
VIROQUA        FAIR      36  31  83 S16       29.75S WCI  26
BOSCOBEL       FAIR      40  29  64 S6        29.80F
PRAIRIE DU CHI MOCLDY    40  28  61 SE6       29.77F
PLATTEVILLE    MOCLDY    38  32  79 S12       29.80F WCI  30
$$

WIZ056-057-062-063-064-067-068-190500-
SOUTH CENTRAL WISCONSIN

CITY           SKY/WX    TMP DP  RH WIND       PRES   REMARKS
REEDSBURG      CLOUDY    37  30  75 S12G17    29.80F WCI  30
BARABOO/DELLS  MOCLDY    35  30  81 S10       29.80F WCI  27
LONE ROCK      CLOUDY    38  31  76 E5        29.81F WCI  34
MINERAL POINT  FAIR      36  34  93 SE12      29.79F WCI  27
MADISON        MOCLDY    37  31  78 S14       29.85S WCI  28
MIDDLETON      CLOUDY    38  32  77 S8        29.83F WCI  33
WATERTOWN      CLOUDY    38  32  79 S14G28    29.85F WCI  29
MONROE         CLOUDY    37  32  81 S18G24    29.82F WCI  27
JANESVILLE     MOCLDY    39  32  75 S15G21    29.86F WCI  31
$$

WIZ051-052-058>065-066-070>072-190500-
SOUTHEAST WISCONSIN

CITY           SKY/WX    TMP DP  RH WIND       PRES   REMARKS
MILWAUKEE      MOCLDY    36  31  82 S8        29.89R WCI  30
WAUKESHA       MOCLDY    34  28  80 S9        29.89R WCI  26
MILWAUKEE/TIMM MOCLDY    34  28  80 S5        29.90R WCI  30
RACINE         FAIR      36  31  82 S18G30    29.89F WCI  26
BURLINGTON     FAIR      37  29  72 S10       29.89R WCI  30
KENOSHA        FAIR      39  29  67 S15G26    29.87F WCI  31
FOND DU LAC    CLOUDY    34  26  72 S10       29.85F WCI  26
SHEBOYGAN      CLOUDY    34  31  88 S17       29.88S WCI  23
WEST BEND      FAIR      32  30  93 S6        29.87F WCI  26
JUNEAU         CLOUDY    35  29  78 S10G17    29.87R WCI  28
$$

LSZ147-162-190500-
LAKE SUPERIOR

STATION/POSITION TIME  TEMP    WIND        PRES    WAVE
                       AIR SEA DIR/SP/G            HT/PER
                 (UTC) (F)     (DEG/KT/KT) (MB)    (FT/S)
DEVILS ISLAND    0400   23      30/ 20/ 24 1011.7R
SAXON HARBOR     0340   27      30/ 13/ 15 1008.8R
$$

LMZ867-665-643>646-190500-
LAKE MICHIGAN

STATION/POSITION TIME  TEMP    WIND        PRES    WAVE
                       AIR SEA DIR/SP/G            HT/PER
                 (UTC) (F)     (DEG/KT/KT) (MB)    (FT/S)
NORTHPORT PIER   0400   36                 1011.9
KEWAUNEE LAKESHO 0342   36     190/ 19/ 24 1011.6F
SHEBOYGAN LAKESH 0400   36     190/ 25/ 29 1012.4R
PORT WASHINGTON  0340   34     190/ 13/ 18 1013.5R
MILWAUKEE LAKESH 0350   36     190/ 11/ 13   N/A
KENOSHA   LAKESH 0400   35     180/ 16/ 25 1011.9
$$

TC  - TEMPERATURE IN CELSIUS
VSB - VISIBILITY IN STATUTE MILES
WCI - WIND CHILL INDEX
HX  - HEAT INDEX





USA.gov is the U.S. government's official web portal to all federal, state and local government web resources and services.